User: anonymous   Login
Location: Croisilles
(50.1998°N, 2.8793°E)
Time: 01:35:42
(UTC+00:00)
Language:

Cosmos 158 Rocket - Orbit

View from above orbital plane
View from above orbital plane
View from above satellite
View from above satellite

Ground track
Ground track

The orbit data is extracted from the following two-line orbital elements,

1 02802U 67045B   21102.43312065 -.00000033  00000-0 -14379-5 0  9991
2 02802  74.0092  89.0332 0066345 169.0712 191.1905 14.43801909830322
Epoch (UTC): 12 April 2021 10:23:41
Eccentricity: 0.0066345
inclination: 74.0092°
perigee height: 699 km
apogee height: 793 km
right ascension of ascending node: 89.0332°
argument of perigee: 169.0712°
revolutions per day: 14.43801909
mean anomaly at epoch: 191.1905°
orbit number at epoch: 83032

The dashed part of the orbit path shows where the satellite is in the earth's shadow,  

DLR